INMARSAT 3-F2 (24307 NORAD) Tracking and Keplerian Element Data

This shows tracking and keplerian element data for the satellite.

Feedback or suggestion? Click here.




ElementValue
Catalog24307
NameINMARSAT 3-F2
Epoch Orbit10712
Epoch Day353.47247309
Epoch Year2025
RAAN55.7447
Inclination9.4501
Eccentricity0.0006312
Argument of Perigee209.4999
Mean Anonmoly324.7096
Mean Motion0.99999646
Decay Rate-2.26E-06
L11 24307U 96053A 25353.47247309 -.00000226 00000+0 00000+0 0 9992
L22 24307 9.4501 55.7447 0006312 209.4999 324.7096 0.99999646107126



Live tracking and technical data element details for INMARSAT 3-F2 (NORAD 24307). INMARSAT 3-F2 can be tracked NOW for your location showing map with azimuth and elevation plus other details from your city location.







IsCatalogInMostPopularTable: catalog: 24307, numindb: 475
Update: records affected: 1



GetName: 24307 INMARSAT 3-F2

Hit Count: updated at: Sat, 07 Mar 2026 06:55:07 GMT